East Porterville
DateTemperatureDew Point
09/02 - 07:00 AM56.3°51.0°
09/02 - 06:45 AM54.1°50.3°
09/02 - 06:30 AM53.7°49.5°
09/02 - 06:15 AM53.4°49.6°
09/02 - 06:00 AM52.5°50.0°
09/02 - 05:45 AM52.9°50.0°
09/02 - 05:30 AM53.1°49.8°
09/02 - 05:15 AM53.2°49.8°
09/02 - 05:00 AM54.1°50.2°
09/02 - 04:45 AM54.7°49.8°
09/02 - 04:30 AM55.5°50.0°
09/02 - 04:15 AM56.0°50.4°
09/02 - 04:00 AM55.3°51.1°
09/02 - 03:45 AM53.3°51.6°
09/02 - 03:30 AM52.7°51.3°
09/02 - 03:15 AM52.8°51.4°
09/02 - 03:00 AM52.9°51.5°
09/02 - 02:45 AM53.4°51.4°
09/02 - 02:30 AM53.9°51.7°
09/02 - 02:15 AM54.1°52.0°
09/02 - 02:00 AM54.5°52.1°
09/02 - 01:45 AM54.9°52.2°
09/02 - 01:30 AM55.4°52.3°
09/02 - 01:15 AM55.8°52.3°
09/02 - 01:00 AM56.2°52.4°
09/02 - 12:45 AM56.6°52.7°
09/02 - 12:30 AM56.7°52.4°
09/02 - 12:15 AM57.1°52.6°
09/02 - 12:00 AM57.6°53.2°
09/01 - 11:45 PM58.2°52.7°
09/01 - 11:30 PM58.6°52.3°
09/01 - 11:15 PM59.5°52.2°
09/01 - 11:00 PM59.7°52.0°
09/01 - 10:45 PM59.9°52.0°
09/01 - 10:30 PM60.3°51.5°
09/01 - 10:15 PM61.3°52.5°
09/01 - 10:00 PM62.6°52.3°
09/01 - 09:45 PM62.9°50.8°
09/01 - 09:30 PM63.0°51.0°
09/01 - 09:15 PM63.4°51.9°
09/01 - 09:00 PM64.5°52.4°
09/01 - 08:45 PM65.8°51.3°
09/01 - 08:30 PM66.4°51.7°
09/01 - 08:15 PM67.0°52.5°
09/01 - 08:00 PM68.1°52.9°
09/01 - 07:45 PM69.7°52.8°
09/01 - 07:30 PM71.5°53.0°
09/01 - 07:15 PM73.1°50.7°
09/01 - 07:00 PM75.3°52.3°
09/01 - 06:45 PM77.4°51.3°
09/01 - 06:30 PM79.0°48.8°
09/01 - 06:15 PM80.2°47.9°
09/01 - 06:00 PM81.0°47.2°
09/01 - 05:45 PM81.8°48.0°
09/01 - 05:30 PM82.3°47.5°
09/01 - 05:15 PM82.8°48.0°
09/01 - 05:00 PM83.1°48.6°
09/01 - 04:45 PM83.7°49.2°
09/01 - 04:30 PM83.8°50.1°
09/01 - 04:15 PM83.9°50.4°
09/01 - 04:00 PM84.2°50.5°
09/01 - 03:45 PM83.6°50.8°
09/01 - 03:30 PM83.8°50.9°
09/01 - 03:15 PM83.3°51.5°
09/01 - 03:00 PM83.5°51.6°
09/01 - 02:45 PM83.1°53.6°
09/01 - 02:30 PM83.7°54.7°
09/01 - 02:15 PM83.7°55.7°
09/01 - 02:00 PM83.1°55.1°
09/01 - 01:45 PM83.5°55.8°
09/01 - 01:30 PM84.1°57.1°
09/01 - 01:15 PM84.0°56.8°
09/01 - 01:00 PM83.5°57.7°
09/01 - 12:45 PM83.5°57.7°
09/01 - 12:30 PM82.6°58.4°
09/01 - 12:15 PM81.3°58.3°
09/01 - 12:00 PM80.4°58.1°
09/01 - 11:45 AM79.4°58.0°
09/01 - 11:30 AM78.9°57.8°
09/01 - 11:15 AM77.8°57.6°
09/01 - 11:00 AM76.7°57.7°
09/01 - 10:45 AM75.8°57.8°
09/01 - 10:30 AM74.3°57.5°
09/01 - 10:15 AM72.6°56.9°
09/01 - 10:00 AM72.1°56.7°
09/01 - 09:45 AM70.6°56.6°
09/01 - 09:30 AM69.4°56.0°
09/01 - 09:15 AM68.8°56.1°
09/01 - 09:00 AM68.1°56.4°
09/01 - 08:45 AM67.1°55.7°
09/01 - 08:30 AM66.0°55.3°
09/01 - 08:15 AM64.9°55.4°
09/01 - 08:00 AM63.5°55.1°
09/01 - 07:45 AM62.1°55.3°
09/01 - 07:30 AM59.6°54.7°
09/01 - 07:15 AM57.2°55.8°
09/01 - 07:00 AM56.0°55.8°
09/01 - 06:45 AM55.1°54.7°
09/01 - 06:30 AM54.5°53.8°
09/01 - 06:15 AM54.2°53.3°
09/01 - 06:00 AM54.5°53.5°
09/01 - 05:45 AM54.8°53.5°
09/01 - 05:30 AM55.2°53.7°
09/01 - 05:15 AM55.8°54.2°
09/01 - 05:00 AM56.3°54.5°
09/01 - 04:45 AM56.7°54.4°
09/01 - 04:30 AM56.9°54.5°
09/01 - 04:15 AM56.9°54.6°
09/01 - 04:00 AM56.8°54.4°
09/01 - 03:45 AM56.8°54.0°
09/01 - 03:30 AM57.4°54.0°
09/01 - 03:15 AM58.4°53.8°
09/01 - 03:00 AM59.2°53.8°
09/01 - 02:45 AM59.8°52.9°
09/01 - 02:30 AM60.3°53.4°
09/01 - 02:15 AM60.8°53.0°
09/01 - 02:00 AM61.1°53.0°
09/01 - 01:45 AM61.3°51.8°
09/01 - 01:30 AM61.2°51.3°
09/01 - 01:15 AM60.6°50.6°
09/01 - 01:00 AM60.3°49.9°
09/01 - 12:45 AM61.5°51.1°
09/01 - 12:30 AM62.0°49.5°
09/01 - 12:15 AM62.8°49.4°
09/01 - 12:00 AM63.3°47.2°
08/31 - 11:45 PM64.3°48.2°
08/31 - 11:30 PM65.7°48.8°
08/31 - 11:15 PM66.5°47.4°
08/31 - 11:00 PM66.9°46.3°
08/31 - 10:45 PM67.7°46.0°
08/31 - 10:30 PM67.8°43.5°
08/31 - 10:15 PM67.7°42.7°
08/31 - 10:00 PM68.3°41.1°
08/31 - 09:45 PM68.6°41.3°
08/31 - 09:30 PM68.4°44.5°
08/31 - 09:15 PM69.0°45.1°
08/31 - 09:00 PM69.5°47.0°
08/31 - 08:45 PM70.6°48.0°
08/31 - 08:30 PM71.1°50.6°
08/31 - 08:15 PM71.9°52.0°
08/31 - 08:00 PM72.5°52.7°
08/31 - 07:45 PM73.4°57.1°
08/31 - 07:30 PM75.1°58.7°
08/31 - 07:15 PM77.2°58.7°
08/31 - 07:00 PM80.1°58.6°
08/31 - 06:45 PM83.1°59.1°
08/31 - 06:30 PM85.6°56.8°
08/31 - 06:15 PM86.9°55.0°
08/31 - 06:00 PM88.2°53.8°
08/31 - 05:45 PM88.9°53.1°
08/31 - 05:30 PM89.6°53.8°
08/31 - 05:15 PM90.2°53.3°
08/31 - 05:00 PM90.7°53.2°
08/31 - 04:45 PM90.9°52.9°
08/31 - 04:30 PM91.1°52.9°
08/31 - 04:15 PM91.5°52.8°
08/31 - 04:00 PM91.3°54.3°
08/31 - 03:45 PM91.7°52.9°
08/31 - 03:30 PM91.8°55.0°
08/31 - 03:15 PM91.8°53.7°
08/31 - 03:00 PM92.3°54.2°
08/31 - 02:45 PM92.6°56.2°
08/31 - 02:30 PM93.0°55.9°
08/31 - 02:15 PM93.1°56.1°
08/31 - 02:00 PM92.8°56.5°
08/31 - 01:45 PM93.2°55.3°
08/31 - 01:30 PM93.9°57.1°
08/31 - 01:15 PM94.0°58.2°
08/31 - 01:00 PM93.3°57.4°
08/31 - 12:45 PM92.4°55.8°
08/31 - 12:30 PM92.4°57.3°
08/31 - 12:15 PM91.6°57.7°
08/31 - 12:00 PM91.0°56.7°
08/31 - 11:45 AM90.1°57.8°
08/31 - 11:30 AM89.4°58.1°
08/31 - 11:15 AM88.1°57.6°
08/31 - 11:00 AM87.4°57.6°
08/31 - 10:45 AM86.2°57.3°
08/31 - 10:30 AM85.1°56.6°
08/31 - 10:15 AM84.3°54.9°
08/31 - 10:00 AM83.3°54.7°
08/31 - 09:45 AM82.8°53.3°
08/31 - 09:30 AM81.4°52.5°
08/31 - 09:15 AM80.5°52.2°
08/31 - 09:00 AM79.0°52.2°
08/31 - 08:45 AM77.0°51.5°
08/31 - 08:30 AM76.1°51.9°
08/31 - 08:15 AM74.5°52.5°
08/31 - 08:00 AM72.5°52.6°
08/31 - 07:45 AM69.9°52.1°